Weather History for Boundary Cnty AP, Bonners Fer, ID

Change the Weather History Date:

Sunday, May 4, 2014

  Actual Average (KSZT) Record (KSZT)
Temperature  
Mean Temperature 48 °F -  
Max Temperature 55 °F 62 °F 82 °F (1980)
Min Temperature 41 °F 37 °F 27 °F (1949)
Degree Days  
Heating Degree Days 17    
Moisture  
Dew Point 41 °F    
Average Humidity 83    
Maximum Humidity 100    
Minimum Humidity 51    
Precipitation  
Precipitation 0.24 in - - ()
Sea Level Pressure  
Sea Level Pressure 29.79 in    
Wind  
Wind Speed 5 mph (WSW)    
Max Wind Speed 13 mph    
Max Gust Speed 21 mph    
Visibility 9 miles    
Events Rain    
Averages and records for this station are not official NWS values.
T = Trace of Precipitation, MM = Missing Value Source: NWS Daily Summary

Daily Weather History Graph

Daily Weather History Graph

Search for Another Location

Airport:

Trip Planner

Search our weather history database for the weather conditions in past years. The results will help you decide how hot, cold, wet, or windy it might be!

Date:

Astronomy

May. 04, 2014 Rise Set
Actual Time 5:19 AM PDT 8:04 PM PDT
Civil Twilight 4:44 AM PDT 8:40 PM PDT
Nautical Twilight 3:58 AM PDT 9:27 PM PDT
Astronomical Twilight 3:04 AM PDT 10:22 PM PDT
Moon 9:46 AM PDT (5/4) 12:15 AM PDT (5/4)
Length of Visible Light 15h 56m
Length of Day
14h 44m
Waxing Crescent, 28% of the Moon is Illuminated
May 4
Waxing Crescent
May 6
First Quarter
May 14
Full
May 21
Last Quarter
May 28
New

Hourly Weather History & Observations

Time (PDT) Temp. Windchill Dew Point Humidity Pressure Visibility Wind Dir Wind Speed Gust Speed Precip Events Conditions
12:15 AM 44.6 °F 39.7 °F 39.2 °F 81% 29.77 in 10.0 mi North 9.2 mph - N/A   Clear
12:35 AM 44.6 °F 39.2 °F 39.2 °F 81% 29.77 in 10.0 mi NNW 10.4 mph - N/A   Clear
12:55 AM 44.6 °F - 39.2 °F 81% 29.77 in 10.0 mi Calm Calm - N/A   Clear
1:15 AM 44.6 °F 40.7 °F 39.2 °F 81% 29.77 in 10.0 mi NNW 6.9 mph - N/A   Mostly Cloudy
1:35 AM 42.8 °F 40.1 °F 39.2 °F 87% 29.77 in 10.0 mi North 4.6 mph - N/A   Overcast
1:55 AM 44.6 °F 40.2 °F 39.2 °F 81% 29.76 in 10.0 mi North 8.1 mph - N/A   Overcast
2:15 AM 44.6 °F 40.7 °F 39.2 °F 81% 29.76 in 10.0 mi North 6.9 mph - N/A   Overcast
2:35 AM 44.6 °F - 39.2 °F 81% 29.77 in 10.0 mi Calm Calm - N/A   Overcast
2:55 AM 44.6 °F - 39.2 °F 81% 29.77 in 10.0 mi Calm Calm - N/A   Overcast
3:15 AM 42.8 °F 41.1 °F 41.0 °F 93% 29.77 in 5.0 mi NNW 3.5 mph - N/A Rain Light Rain
3:35 AM 42.8 °F - 41.0 °F 93% 29.77 in 10.0 mi Calm Calm - 0.01 in Rain Light Rain
3:55 AM 41.0 °F - 41.0 °F 100% 29.77 in 10.0 mi Calm Calm - 0.01 in   Overcast
4:15 AM 41.0 °F - 41.0 °F 100% 29.77 in 10.0 mi Calm Calm - N/A   Overcast
4:35 AM 41.0 °F - 41.0 °F 100% 29.77 in 10.0 mi Calm Calm - N/A   Overcast
4:55 AM 41.0 °F - 41.0 °F 100% 29.77 in 10.0 mi Calm Calm - N/A Rain Light Rain
5:15 AM 41.0 °F - 41.0 °F 100% 29.77 in 10.0 mi Calm Calm - 0.01 in Rain Light Rain
5:35 AM 41.0 °F - 41.0 °F 100% 29.77 in 6.0 mi Calm Calm - 0.02 in Rain Light Rain
5:55 AM 41.0 °F - 41.0 °F 100% 29.76 in 5.0 mi Calm Calm - 0.03 in Rain Light Rain
6:15 AM 41.0 °F - 41.0 °F 100% 29.76 in 10.0 mi Calm Calm - N/A   Overcast
6:35 AM 41.0 °F - 41.0 °F 100% 29.77 in 6.0 mi Calm Calm - 0.01 in Rain Light Rain
6:55 AM 41.0 °F - 41.0 °F 100% 29.77 in 0.5 mi Calm Calm - 0.03 in Rain Light Rain
7:15 AM 42.8 °F - 41.0 °F 93% 29.77 in 10.0 mi Calm Calm - N/A   Mostly Cloudy
7:35 AM 42.8 °F - 41.0 °F 93% 29.76 in 7.0 mi Calm Calm - N/A   Mostly Cloudy
7:55 AM 42.8 °F 41.1 °F 41.0 °F 93% 29.76 in 9.0 mi ESE 3.5 mph - N/A   Mostly Cloudy
8:15 AM 44.6 °F 41.4 °F 41.0 °F 87% 29.76 in 10.0 mi ENE 5.8 mph - N/A Rain Light Rain
8:35 AM 44.6 °F - 42.8 °F 93% 29.76 in 10.0 mi Calm Calm - N/A   Overcast
8:55 AM 46.4 °F 43.5 °F 42.8 °F 87% 29.77 in 10.0 mi East 5.8 mph - N/A   Overcast
9:15 AM 46.4 °F 44.3 °F 42.8 °F 87% 29.76 in 10.0 mi SSE 4.6 mph - N/A   Overcast
9:35 AM 48.2 °F - 42.8 °F 82% 29.77 in 10.0 mi South 5.8 mph - N/A   Overcast
9:55 AM 48.2 °F - 42.8 °F 82% 29.78 in 10.0 mi Calm Calm - N/A   Mostly Cloudy
10:15 AM 48.2 °F - 41.0 °F 76% 29.78 in 6.0 mi SSW 9.2 mph - N/A Rain Light Rain
10:35 AM 50.0 °F - 41.0 °F 71% 29.78 in 10.0 mi South 8.1 mph 18.4 mph N/A   Mostly Cloudy
10:55 AM 48.2 °F - 39.2 °F 71% 29.79 in 10.0 mi SSW 9.2 mph 19.6 mph N/A   Overcast
11:15 AM 48.2 °F - 41.0 °F 76% 29.79 in 7.0 mi SSW 5.8 mph - N/A   Mostly Cloudy
11:35 AM 51.8 °F - 41.0 °F 67% 29.79 in 10.0 mi SSW 6.9 mph - N/A   Mostly Cloudy
11:55 AM 53.6 °F - 41.0 °F 62% 29.79 in 10.0 mi SSW 10.4 mph 19.6 mph N/A   Scattered Clouds
12:15 PM 53.6 °F - 41.0 °F 62% 29.78 in 10.0 mi SSW 5.8 mph 17.3 mph N/A   Partly Cloudy
12:35 PM 55.4 °F - 41.0 °F 58% 29.78 in 10.0 mi SSW 9.2 mph - N/A   Clear
12:55 PM 55.4 °F - 39.2 °F 54% 29.78 in 10.0 mi SW 9.2 mph 18.4 mph N/A   Partly Cloudy
1:15 PM 55.4 °F - 39.2 °F 54% 29.78 in 10.0 mi South 4.6 mph - N/A   Scattered Clouds
1:35 PM 53.6 °F - 39.2 °F 58% 29.78 in 10.0 mi SSW 8.1 mph 17.3 mph N/A   Mostly Cloudy
1:55 PM 53.6 °F - 37.4 °F 54% 29.78 in 10.0 mi South 12.7 mph 19.6 mph N/A   Mostly Cloudy
2:15 PM 55.4 °F - 37.4 °F 51% 29.78 in 10.0 mi South 11.5 mph 20.7 mph N/A   Mostly Cloudy
2:35 PM 53.6 °F - 39.2 °F 58% 29.78 in 10.0 mi SW 6.9 mph - N/A Rain Light Rain
2:55 PM 53.6 °F - 42.8 °F 67% 29.77 in 10.0 mi NW 4.6 mph - N/A   Scattered Clouds
3:15 PM 53.6 °F - 39.2 °F 58% 29.78 in 10.0 mi South 6.9 mph - N/A   Mostly Cloudy
3:35 PM 53.6 °F - 39.2 °F 58% 29.77 in 10.0 mi SW 3.5 mph - N/A   Overcast
3:55 PM 53.6 °F - 39.2 °F 58% 29.77 in 10.0 mi SW 5.8 mph - N/A   Overcast
4:15 PM 51.8 °F - 37.4 °F 58% 29.78 in 10.0 mi SSW 3.5 mph - N/A   Mostly Cloudy
4:35 PM 48.2 °F - 42.8 °F 82% 29.80 in 3.0 mi NW 8.1 mph - 0.09 in Rain Light Rain
4:55 PM 46.4 °F 41.5 °F 44.6 °F 93% 29.80 in 3.0 mi North 10.4 mph - 0.14 in Rain Light Rain
5:15 PM 46.4 °F 42.4 °F 44.6 °F 93% 29.80 in 5.0 mi NNE 8.1 mph - 0.01 in Rain Light Rain
5:35 PM 48.2 °F - 44.6 °F 87% 29.79 in 10.0 mi Calm Calm - 0.02 in   Partly Cloudy
5:55 PM 46.4 °F - 46.4 °F 100% 29.79 in 10.0 mi Calm Calm - 0.02 in   Mostly Cloudy
6:15 PM 46.4 °F 45.2 °F 44.6 °F 93% 29.79 in 10.0 mi South 3.5 mph - N/A   Overcast
6:35 PM 46.4 °F - 44.6 °F 93% 29.80 in 10.0 mi Calm Calm - N/A   Mostly Cloudy
6:55 PM 46.4 °F 41.5 °F 44.6 °F 93% 29.80 in 10.0 mi NNW 10.4 mph - N/A   Scattered Clouds
7:15 PM 44.6 °F 38.4 °F 41.0 °F 87% 29.80 in 10.0 mi NNW 12.7 mph - N/A   Scattered Clouds
7:35 PM 44.6 °F 39.2 °F 41.0 °F 87% 29.80 in 10.0 mi North 10.4 mph - N/A   Mostly Cloudy
7:55 PM 46.4 °F - 41.0 °F 81% 29.81 in 10.0 mi Calm Calm - N/A   Mostly Cloudy
8:15 PM 44.6 °F - 41.0 °F 87% 29.81 in 10.0 mi Calm Calm - 0.01 in   Overcast
8:35 PM 44.6 °F - 41.0 °F 87% 29.81 in 10.0 mi Calm Calm - 0.01 in   Mostly Cloudy
8:55 PM 44.6 °F 40.7 °F 42.8 °F 93% 29.83 in 10.0 mi NNW 6.9 mph - 0.01 in   Mostly Cloudy
9:15 PM 44.6 °F 40.2 °F 41.0 °F 87% 29.83 in 10.0 mi NNW 8.1 mph - N/A   Overcast
9:35 PM 42.8 °F - 41.0 °F 93% 29.83 in 10.0 mi Calm Calm - N/A   Mostly Cloudy
9:55 PM 42.8 °F - 41.0 °F 93% 29.83 in 10.0 mi Calm Calm - N/A   Mostly Cloudy
10:15 PM 42.8 °F - 41.0 °F 93% 29.84 in 10.0 mi Calm Calm - N/A   Mostly Cloudy
10:35 PM 42.8 °F - 41.0 °F 93% 29.84 in 10.0 mi Calm Calm - N/A Rain Light Rain
10:55 PM 42.8 °F - 41.0 °F 93% 29.84 in 10.0 mi Calm Calm - N/A Rain Light Rain
11:15 PM 42.8 °F - 41.0 °F 93% 29.84 in 10.0 mi Calm Calm - N/A   Overcast
11:35 PM 42.8 °F - 41.0 °F 93% 29.84 in 10.0 mi Calm Calm - N/A   Overcast
11:55 PM 42.8 °F - 41.0 °F 93% 29.84 in 9.0 mi Calm Calm - N/A   Overcast